FENGYUN 1C DEB

Satellite information

Favourite Embed

Satellite Type and Status

DEBRISIN ORBIT

Key statistics

Satellite FENGYUN 1C DEB at a glance.

Uptime

9619

Days in orbit

Revolutions

≈ 14.1

Per day

Orbit

SSO

Sun Synchronous Orbit

Inclination

98.8

Latest

Satellite identification and parameters

Extended collection of information and parameters for FENGYUN 1C DEB.

Object identification

Identified? True

Debris? True

Object name: FENGYUN 1C DEB

International designator: 1999-025CFE

Object number (NORAD): 31755

Object ID (CCSDS): 31755

Country: PEOPLES REPUBLIC OF CHINA (PRC)

Current information (Y/N): Y

RCS size: SMALL

Orbital parameters

Period: 102.269 minutes

Inclination: 98.7725 deg

SMA: 7244.18 km

Apoapsis: 1004.343 km

Periapsis: 727.747 km

RAAN: 204.3744 deg

Eccentricy: 0.0190909

Argument of periapsis: 51.349 deg

Mean anomaly: 71.7499 deg

Mean motion: 14.08052711 rev/day

Mean motion (dot): 0.00000797 rev/day2

B* drag term: 0.00041713 1/REarth

Two-line elements (TLE)

Creation date: July 28, 2025, 6:46 a.m.

Reference frame: TEME

Reference center: EARTH

Epoch: July 27, 2025, 6:56 p.m. UTC

TLE line 0: 0 FENGYUN 1C DEB

TLE line 1: 1 31755U 99025CFE 25208.78933163 .00000797 00000-0 41713-3 0 9995

TLE line 2: 2 31755 98.7725 204.3744 0190909 51.3490 71.7499 14.08052711617308

Live tracking on map

Real-time ground track for satellite FENGYUN 1C DEB.

In-orbit conjunctions

A list of the most updated potential collisions computed for object FENGYUN 1C DEB.

Target Orbit TCA Probability of collision Miss distance Type
THOR ABLESTAR DEB LEO 2025-06-11 20:44:13 0.0007320569 56.0 (m) DEBRIS
NOAA 16 DEB SSO 2024-11-10 18:51:11 0.0009510174 274.0 (m) DEBRIS
ATLAS D R/B SSO 2024-07-14 23:50:36 0.0003312741 315.0 (m) ROCKET BODY

Associated space launch

Chinese polar orbiting meteorological satellite

FENGYUN 1C DEB was lifted into orbit during the mission ‘Long March 4B | Feng Yun 1C’, on board a Long March 4B space rocket.

The launch took place on May 10, 1999, 1:33 a.m. from Launch Complex 7.

For more information about the launch, click the button.

Launch to space Long March 4B | Feng Yun 1C
Long March 4B | Feng Yun 1C

Agency: N/A

Status: Launch Successful

Launch date: May 10, 1999, 1:33 a.m. UTC

Rocket: Long March 4B

Launch pad: Launch Complex 7

Location: Taiyuan Satellite Launch Center, People's Republic of China

...

Latest news about this satellite

There are no fresh news available about this satellite. Check back as we update our databases every day.


Newsletter sign-up

Weekly statistics, charts and insights to help you stay on top of the space industry.